Wind_Speed
6 7 11 14 16 16 16 17 19 20 20 19 20 21 21 20 19 19 19 20 20 19 19 19 18 18 17 18 18 18 19 19 19 20 20 20 20 21 22 22 23 23 23
5 5 9 13 14 15 16 16 17 20 20 20 21 21 21 21 21 20 20 20 20 20 20 19 20 20 20 20 21 21 22 22 22 22 23 23 24 24 25 25 25 26 27
5 6 8 10 13 15 15 16 16 17 19 21 21 22 22 22 21 21 21 20 21 21 21 21 22 22 23 23 24 24 24 25 25 26 26 27 27 28 28 28 29 29 30
5 6 8 9 11 13 14 15 16 17 19 20 21 22 22 23 22 22 22 22 22 22 23 24 24 24 25 25 26 27 27 27 28 29 29 29 30 31 31 31 31 32 32
6 5 8 10 11 12 13 13 14 15 16 18 19 20 21 21 21 21 22 23 23 23 24 25 26 26 27 27 28 29 30 30 31 31 32 32 33 33 33 34 34 34 35
6 7 7 9 10 10 11 13 15 16 16 17 18 19 20 21 22 23 24 25 25 25 26 27 27 29 30 30 31 31 32 32 33 34 34 34 34 35 36 37 37 37 37
8 7 7 8 11 12 12 12 14 16 17 18 19 20 20 22 23 24 24 24 25 26 27 28 30 31 32 32 32 33 33 34 35 35 36 36 37 39 40 40 40 41 41
10 10 9 8 10 12 13 14 14 15 16 18 19 20 21 22 23 24 26 26 26 27 28 29 30 30 31 31 32 33 34 35 36 37 38 39 40 41 42 42 43 44 44
13 12 12 12 11 12 13 15 16 16 17 18 19 20 21 22 23 25 26 26 27 27 28 29 30 31 32 33 34 35 35 36 37 38 39 40 41 42 44 45 46 46 46
14 14 14 14 14 15 15 15 16 17 17 18 19 20 20 22 23 24 25 27 28 28 28 29 30 32 33 34 35 37 38 39 40 41 41 42 43 45 46 47 47 48 49
16 16 16 16 16 17 17 17 17 18 19 20 20 21 22 24 25 25 26 27 28 29 30 31 32 33 35 36 37 38 38 40 42 43 44 44 45 46 48 49 50 51 52
17 17 17 17 18 18 18 19 19 20 20 21 23 23 23 24 26 27 28 29 31 32 33 34 35 36 37 38 39 39 40 41 42 43 45 46 48 49 50 51 53 54 55
19 19 18 18 19 19 19 20 21 21 21 22 23 24 25 26 27 28 30 31 32 33 34 35 36 37 38 39 40 41 42 43 45 46 48 49 50 52 53 54 55 56 57
20 20 19 20 21 22 22 23 23 23 23 24 25 26 27 28 29 30 31 32 34 35 35 36 37 38 39 41 42 44 45 47 48 50 51 52 54 55 56 56 57 57 57
22 22 22 22 23 24 23 23 23 24 25 26 26 28 29 30 31 33 33 34 35 36 37 38 39 40 42 44 45 47 48 50 52 53 54 54 55 56 56 57 57 57 58
23 23 24 24 23 24 24 25 26 27 27 27 28 29 30 31 32 33 33 34 35 36 38 40 41 43 45 46 47 49 51 52 53 54 55 55 55 55 55 56 56 56 57
23 23 23 24 25 26 26 27 28 29 30 30 29 30 31 32 32 33 33 35 37 39 41 43 45 46 47 48 50 51 52 53 54 54 54 54 55 55 55 55 55 55 55
23 24 24 25 26 27 27 28 29 30 30 30 30 30 31 32 33 35 37 39 40 42 44 45 47 48 50 51 52 53 53 53 53 53 54 54 54 54 53 53 53 52 51
24 24 24 25 25 26 26 27 28 28 28 29 29 31 33 34 35 37 39 41 42 44 46 47 49 50 51 51 52 52 52 52 52 52 52 51 51 50 49 49 47 46 45
22 23 24 24 24 24 24 24 25 26 27 28 30 32 34 35 37 39 41 43 44 46 47 48 49 50 50 50 50 50 49 49 49 48 47 47 46 45 43 42 41 40 39
20 20 20 20 21 21 22 23 24 26 28 30 32 34 35 37 39 41 43 45 46 47 48 48 49 49 49 48 48 47 47 46 45 43 42 41 40 39 37 37 36 36 36
17 18 19 19 21 22 24 26 27 29 30 32 34 36 38 40 42 43 44 45 46 47 47 47 47 47 46 45 44 43 42 41 40 38 37 36 35 34 34 33 33 32 31
16 18 19 21 23 25 26 28 29 31 33 35 37 39 40 42 43 44 45 45 46 46 45 45 44 43 42 41 39 38 37 37 36 35 34 33 32 31 31 30 30 29 27
18 20 21 23 25 27 28 30 32 34 35 37 39 40 42 43 44 44 45 45 44 43 42 41 39 38 37 36 35 34 34 33 32 31 30 30 29 28 27 26 25 24 24
21 23 24 26 28 30 32 33 35 37 38 39 40 42 42 43 43 43 43 42 40 38 37 36 35 34 33 33 32 31 30 29 28 27 26 26 25 24 23 22 21 21 20
24 26 28 29 31 32 34 35 36 38 38 39 39 40 40 40 39 39 38 36 35 34 34 32 32 31 30 29 28 27 27 26 25 25 23 22 21 21 20 19 18 18 17
Wind_Direction
284 249 223 217 215 215 214 215 218 218 218 219 219 220 220 222 224 226 229 233 235 237 241 245 248 253 256 260 263 268 271 274 277 280 280 280 281 283 284 284 284 284 284
286 248 220 216 216 215 216 218 221 222 222 223 221 220 222 224 227 230 234 237 238 239 243 249 252 256 260 264 268 272 274 275 278 279 279 280 281 283 284 284 283 284 284
283 247 225 216 216 215 218 222 223 223 222 223 223 222 225 227 231 235 237 239 242 243 246 252 257 260 263 266 270 273 277 277 278 278 279 280 281 282 282 283 283 283 282
285 246 228 221 218 218 222 226 225 224 224 225 224 227 227 230 234 237 240 243 246 248 250 255 260 262 265 269 272 274 277 278 279 279 280 281 283 283 283 283 284 282 282
281 253 235 229 225 225 226 226 225 224 224 224 224 225 228 232 235 239 244 247 251 252 254 258 262 265 268 270 272 275 276 277 278 281 282 283 284 285 285 284 283 282 283
287 264 253 238 231 232 232 230 230 228 227 228 229 231 233 237 242 245 248 252 256 258 260 259 263 268 269 271 273 275 277 279 280 281 281 282 283 284 284 285 284 283 283
284 281 267 250 240 242 245 242 240 235 235 235 235 237 241 245 248 249 254 256 258 262 265 264 266 269 271 272 275 277 278 279 280 281 282 282 282 283 284 284 283 283 282
269 269 268 263 255 251 250 248 246 243 242 242 244 246 248 250 252 255 256 258 263 266 269 268 269 272 273 275 278 278 278 279 280 281 282 282 283 284 283 284 283 283 283
264 263 262 260 259 258 257 252 250 250 250 251 251 253 255 256 257 258 261 262 265 269 270 271 271 272 275 276 278 279 280 281 282 283 284 284 284 284 284 285 285 284 284
261 261 261 262 263 263 262 259 258 258 257 256 257 259 260 261 263 264 265 266 268 270 272 273 275 276 277 278 279 280 281 281 282 283 284 284 284 284 285 285 285 285 285
263 261 261 262 264 264 264 266 266 267 263 261 263 265 265 265 266 268 269 270 272 273 275 277 278 279 280 281 282 283 283 283 283 284 284 285 285 286 286 286 285 285 285
263 262 262 263 265 265 267 270 273 274 269 267 269 269 268 270 271 272 273 274 275 276 278 279 281 282 282 283 283 284 285 285 286 286 286 286 286 286 286 285 286 286 285
264 263 262 263 266 268 271 272 274 278 278 275 274 272 271 272 272 274 276 276 277 278 280 281 283 284 284 285 285 286 286 286 287 287 287 288 287 287 286 286 285 285 285
264 263 265 268 270 274 276 276 277 280 280 279 276 274 275 276 274 277 280 280 280 280 281 283 285 286 286 287 287 287 288 288 288 288 288 288 288 287 286 286 285 285 285
262 265 269 274 279 280 280 282 283 284 283 280 280 280 279 279 279 280 282 282 282 283 284 285 286 287 287 288 288 288 289 289 289 289 289 288 288 287 287 287 287 286 286
265 270 273 277 279 280 282 283 284 285 283 281 279 280 281 281 280 280 281 282 284 285 286 287 288 289 289 289 289 289 290 290 290 289 289 289 289 288 289 288 288 288 287
268 270 273 275 278 280 282 284 284 284 283 282 282 282 283 282 282 283 284 285 286 287 288 289 290 290 290 290 291 291 291 290 290 290 290 290 290 289 289 288 288 288 287
271 272 275 278 279 281 282 284 284 284 283 283 282 282 283 284 284 286 287 289 289 290 291 291 292 292 291 291 292 292 292 292 291 291 291 291 291 290 290 289 289 289 288
272 273 275 278 281 283 284 284 284 284 284 283 284 285 287 287 288 289 290 291 291 292 292 292 292 292 293 293 294 293 293 293 293 294 294 294 293 292 292 291 291 291 290
274 275 276 277 280 282 283 284 284 284 285 286 288 289 290 291 292 292 292 292 293 294 294 293 294 294 295 295 294 294 295 296 296 296 296 295 295 294 294 294 293 292 293
275 275 277 279 280 283 285 286 288 289 290 291 292 292 293 293 294 294 295 295 295 295 295 295 295 295 295 295 295 296 296 297 297 297 297 296 296 296 296 296 295 295 295
278 278 281 283 284 287 289 291 292 292 293 293 294 296 296 297 297 296 296 296 296 297 297 297 297 297 296 296 297 298 298 298 298 299 298 298 298 298 297 296 296 297 297
284 287 289 290 292 293 293 294 294 294 295 296 297 297 297 297 297 297 297 298 298 298 298 298 299 299 299 299 299 298 298 299 300 300 300 299 299 300 300 299 299 298 299
288 290 292 293 294 294 294 294 295 295 296 297 297 298 298 298 298 299 299 299 299 299 300 300 300 300 300 300 300 300 300 300 301 301 301 302 302 302 303 303 303 301 301
289 291 293 294 295 294 295 296 296 297 297 298 298 299 299 300 301 301 302 302 302 302 301 301 301 301 301 302 302 303 302 302 303 304 304 304 304 306 306 306 305 306 306
294 295 296 296 296 296 297 297 297 297 298 299 300 301 302 303 304 304 305 306 305 305 304 303 302 302 302 303 304 305 305 305 306 307 307 307 307 308 310 310 309 310 311
Height
5826 5825 5826 5828 5830 5833 5835 5837 5839 5842 5844 5846 5849 5851 5853 5855 5858 5860 5862 5863 5865 5866 5867 5868 5868 5869 5869 5869 5870 5870 5870 5869 5869 5868 5867 5866 5865 5864 5862 5861 5860 5858 5857
5824 5824 5824 5826 5827 5830 5832 5834 5836 5838 5840 5842 5845 5847 5849 5852 5854 5856 5857 5858 5860 5861 5862 5863 5864 5864 5864 5864 5864 5864 5864 5863 5863 5862 5861 5860 5859 5857 5856 5855 5853 5852 5850
5823 5822 5823 5824 5825 5828 5830 5831 5833 5835 5836 5838 5841 5843 5845 5848 5850 5851 5852 5854 5855 5856 5857 5858 5858 5858 5859 5858 5858 5858 5857 5857 5856 5855 5854 5853 5851 5850 5849 5847 5846 5844 5843
5822 5821 5822 5822 5823 5825 5827 5828 5830 5831 5833 5834 5836 5838 5841 5843 5845 5846 5847 5848 5850 5851 5851 5852 5852 5852 5852 5852 5852 5851 5850 5849 5848 5847 5846 5845 5843 5841 5840 5838 5837 5835 5833
5821 5820 5821 5821 5822 5823 5824 5826 5827 5828 5830 5831 5832 5834 5836 5838 5840 5841 5842 5843 5844 5844 5845 5846 5846 5846 5846 5845 5844 5843 5842 5841 5840 5839 5838 5836 5834 5832 5830 5829 5827 5825 5823
5820 5820 5820 5820 5821 5822 5822 5823 5824 5825 5826 5828 5829 5831 5832 5834 5835 5836 5837 5838 5838 5838 5839 5839 5839 5838 5838 5837 5836 5835 5834 5833 5831 5830 5828 5827 5825 5822 5820 5818 5817 5815 5813
5819 5819 5818 5818 5818 5819 5820 5820 5821 5822 5823 5825 5826 5827 5828 5829 5830 5831 5831 5831 5832 5832 5832 5832 5832 5831 5830 5829 5828 5826 5825 5823 5822 5820 5818 5816 5814 5812 5809 5807 5805 5803 5802
5817 5817 5816 5816 5816 5817 5817 5817 5818 5819 5820 5821 5822 5822 5823 5824 5824 5825 5825 5825 5825 5825 5824 5824 5824 5823 5821 5820 5819 5818 5816 5814 5812 5810 5808 5806 5803 5801 5798 5795 5793 5791 5789
5814 5814 5814 5814 5814 5814 5814 5814 5815 5815 5816 5816 5817 5817 5818 5818 5818 5819 5819 5819 5818 5817 5817 5816 5815 5814 5813 5812 5810 5809 5807 5804 5802 5799 5797 5794 5791 5788 5785 5783 5780 5777 5775
5810 5811 5811 5811 5811 5811 5811 5811 5811 5811 5811 5812 5812 5812 5812 5812 5812 5812 5812 5811 5811 5810 5809 5808 5806 5805 5804 5802 5800 5799 5796 5794 5791 5788 5785 5782 5779 5776 5772 5769 5766 5762 5759
5806 5806 5806 5806 5806 5806 5806 5806 5806 5806 5806 5806 5806 5806 5806 5806 5805 5805 5805 5804 5803 5802 5801 5799 5797 5796 5794 5792 5790 5788 5785 5782 5779 5776 5773 5770 5766 5763 5759 5755 5751 5748 5744
5800 5801 5801 5801 5801 5801 5801 5801 5801 5801 5800 5800 5800 5800 5799 5799 5798 5798 5797 5796 5795 5793 5792 5790 5788 5786 5783 5781 5779 5776 5773 5770 5767 5764 5760 5756 5752 5748 5744 5740 5736 5731 5727
5794 5795 5796 5796 5796 5796 5795 5795 5795 5794 5794 5794 5793 5793 5792 5791 5791 5790 5788 5787 5785 5784 5782 5779 5777 5775 5772 5770 5767 5764 5760 5757 5754 5750 5746 5742 5737 5733 5728 5724 5719 5715 5710
5788 5789 5789 5790 5790 5790 5790 5789 5788 5787 5787 5786 5785 5785 5784 5783 5782 5781 5779 5778 5776 5773 5771 5769 5766 5764 5761 5758 5755 5751 5747 5743 5739 5735 5730 5726 5721 5716 5712 5707 5703 5698 5693
5783 5783 5783 5784 5784 5783 5782 5782 5781 5781 5780 5779 5778 5777 5776 5774 5773 5771 5769 5767 5765 5763 5760 5758 5755 5752 5748 5745 5741 5737 5733 5728 5723 5719 5714 5709 5704 5699 5694 5689 5684 5680 5675
5776 5777 5777 5777 5777 5776 5776 5775 5774 5773 5772 5771 5769 5768 5766 5765 5763 5761 5759 5756 5754 5752 5749 5746 5743 5739 5735 5731 5727 5722 5717 5712 5707 5702 5697 5692 5687 5682 5677 5672 5667 5662 5657
5769 5770 5770 5770 5769 5769 5768 5767 5766 5765 5763 5762 5760 5759 5757 5755 5753 5751 5748 5746 5743 5740 5737 5733 5729 5725 5721 5716 5712 5707 5702 5696 5691 5685 5680 5675 5670 5665 5660 5655 5650 5645 5640
5763 5762 5762 5762 5762 5761 5760 5758 5757 5756 5755 5752 5751 5749 5747 5745 5743 5740 5737 5734 5731 5727 5723 5719 5715 5711 5706 5701 5695 5690 5685 5679 5674 5668 5663 5658 5653 5648 5643 5638 5632 5627 5623
5756 5755 5755 5754 5754 5753 5752 5750 5748 5747 5745 5744 5742 5740 5737 5735 5732 5729 5726 5722 5718 5714 5710 5705 5700 5695 5690 5684 5679 5673 5668 5662 5657 5651 5646 5641 5636 5631 5626 5621 5616 5611 5607
5748 5748 5748 5747 5746 5745 5744 5742 5740 5739 5737 5735 5732 5730 5727 5724 5721 5717 5713 5709 5705 5700 5695 5690 5685 5679 5674 5668 5663 5658 5652 5647 5642 5636 5631 5626 5621 5616 5611 5607 5602 5598 5594
5742 5741 5741 5740 5739 5738 5736 5734 5732 5730 5728 5726 5723 5719 5716 5713 5709 5704 5700 5695 5691 5685 5680 5675 5669 5664 5659 5654 5648 5643 5638 5633 5628 5623 5618 5613 5608 5603 5599 5595 5591 5587 5583
5735 5735 5734 5733 5731 5730 5728 5726 5724 5721 5718 5715 5712 5708 5704 5700 5696 5691 5686 5681 5676 5671 5666 5660 5655 5650 5645 5640 5635 5630 5625 5620 5615 5610 5605 5601 5597 5593 5589 5585 5581 5577 5573
5730 5729 5727 5726 5724 5722 5720 5717 5714 5711 5708 5704 5701 5697 5692 5688 5683 5678 5672 5667 5662 5657 5651 5646 5641 5636 5632 5627 5622 5617 5613 5608 5604 5600 5596 5591 5587 5583 5579 5575 5572 5568 5564
5724 5722 5721 5718 5716 5714 5711 5708 5705 5702 5698 5694 5689 5685 5680 5675 5670 5664 5659 5654 5648 5643 5638 5634 5629 5624 5620 5615 5611 5606 5602 5598 5594 5590 5586 5583 5579 5575 5571 5567 5564 5560 5557
5717 5715 5713 5711 5708 5705 5702 5698 5695 5691 5687 5682 5677 5672 5667 5662 5657 5651 5646 5641 5636 5631 5626 5622 5618 5614 5609 5605 5601 5597 5593 5589 5585 5582 5578 5575 5571 5568 5564 5561 5557 5554 5551
5710 5707 5705 5702 5699 5695 5692 5688 5684 5679 5675 5670 5665 5660 5655 5650 5645 5640 5635 5630 5625 5620 5616 5611 5607 5604 5600 5596 5592 5589 5585 5582 5578 5575 5571 5568 5565 5562 5559 5556 5553 5549 5546